Terrell, TX

4:41 AM CDT on June 24, 2017 (GMT -0500)
Terrell Municipal

Weather History for KTRL - January, 2013

Change the Weather History Date:

Thursday, January 17, 2013

  Actual Average (KGVT) Record (KGVT)
Temperature  
Mean Temperature 44 °F -  
Max Temperature 60 °F 54 °F 73 °F (2000)
Min Temperature 28 °F 38 °F 17 °F (1997)
Degree Days  
Heating Degree Days 21    
Moisture  
Dew Point 29 °F    
Average Humidity 59    
Maximum Humidity 81    
Minimum Humidity 33    
Precipitation  
Precipitation 0.00 in - - ()
Sea Level Pressure  
Sea Level Pressure 30.40 in    
Wind  
Wind Speed 3 mph (NNW)    
Max Wind Speed 14 mph    
Max Gust Speed 21 mph    
Visibility 10 miles    
Events      
Averages and records for this station are not official NWS values.
T = Trace of Precipitation, MM = Missing Value Source: NWS Daily Summary

Daily Weather History Graph

Daily Weather History Graph

Search for Another Location

Airport or City:

Trip Planner

Search our weather history database for the weather conditions in past years. The results will help you decide how hot, cold, wet, or windy it might be!

Date:

Astronomy

Jan. 17, 2013 Rise Set
Actual Time 7:26 AM CST 5:44 PM CST
Civil Twilight 7:00 AM CST 6:10 PM CST
Nautical Twilight 6:30 AM CST 6:40 PM CST
Astronomical Twilight 6:00 AM CST 7:10 PM CST
Moon 10:58 AM CST (1/17) No Moon Set
Length of Visible Light 11h 10m
Length of Day
10h 17m
Waxing Crescent, 38% of the Moon is Illuminated
Jan 17
Waxing Crescent
Jan 18
First Quarter
Jan 26
Full
Feb 3
Last Quarter
Feb 10
New

Hourly Weather History & Observations

Time (CST) Temp. Windchill Dew Point Humidity Pressure Visibility Wind Dir Wind Speed Gust Speed Precip Events Conditions
12:53 AM 30.0 °F - 24.1 °F 79% 30.28 in 10.0 mi Calm Calm - N/A   Overcast
1:53 AM 32.0 °F - 26.1 °F 79% 30.28 in 10.0 mi Calm Calm - N/A   Overcast
2:53 AM 32.0 °F - 25.0 °F 75% 30.29 in 10.0 mi Calm Calm - N/A   Clear
3:53 AM 30.9 °F - 24.1 °F 76% 30.30 in 10.0 mi Calm Calm - N/A   Clear
5:53 AM 28.9 °F - 23.0 °F 78% 30.32 in 10.0 mi Calm Calm - N/A   Clear
6:53 AM 28.0 °F - 23.0 °F 81% 30.34 in 10.0 mi Calm Calm - N/A   Clear
7:53 AM 34.0 °F 29.8 °F 25.0 °F 70% 30.37 in 10.0 mi NNW 4.6 mph - N/A   Clear
8:53 AM 42.1 °F 38.4 °F 28.0 °F 58% 30.39 in 10.0 mi NNW 5.8 mph - N/A   Clear
9:53 AM 46.0 °F 42.5 °F 32.0 °F 58% 30.43 in 10.0 mi NNW 6.9 mph - N/A   Clear
10:53 AM 51.1 °F - 32.0 °F 48% 30.44 in 10.0 mi NNW 6.9 mph - N/A   Clear
11:53 AM 54.0 °F - 34.0 °F 47% 30.43 in 10.0 mi NNW 9.2 mph - N/A   Clear
12:53 PM 57.0 °F - 33.1 °F 40% 30.41 in 10.0 mi NNW 9.2 mph - N/A   Clear
1:53 PM 59.0 °F - 32.0 °F 36% 30.39 in 10.0 mi NNW 11.5 mph 19.6 mph N/A   Clear
2:53 PM 60.1 °F - 32.0 °F 35% 30.39 in 10.0 mi North 10.4 mph 20.7 mph N/A   Clear
3:53 PM 59.0 °F - 30.0 °F 33% 30.40 in 10.0 mi NNW 13.8 mph - N/A   Clear
4:53 PM 57.9 °F - 30.0 °F 35% 30.42 in 10.0 mi North 9.2 mph - N/A   Clear
5:53 PM 54.0 °F - 30.0 °F 40% 30.44 in 10.0 mi North 6.9 mph - N/A   Clear
6:53 PM 51.1 °F - 30.9 °F 46% 30.45 in 10.0 mi North 5.8 mph - N/A   Clear
7:53 PM 46.9 °F - 30.9 °F 54% 30.47 in 10.0 mi North 4.6 mph - N/A   Clear
8:53 PM 43.0 °F 41.3 °F 30.9 °F 62% 30.48 in 10.0 mi North 3.5 mph - N/A   Clear
9:53 PM 41.0 °F - 30.0 °F 65% 30.50 in 10.0 mi Calm Calm - N/A   Clear
10:53 PM 37.9 °F - 30.0 °F 73% 30.51 in 10.0 mi Calm Calm - N/A   Clear
11:53 PM 34.0 °F 31.0 °F 28.0 °F 79% 30.51 in 10.0 mi North 3.5 mph - N/A   Clear